Hourly Weather Roundup
Issued by NWS Central Illinois

Home | Current Version | Previous Version | Text Only | Print | Product List | Glossary On
Versions: 1 2 3 4 5 6 7 8 9 10 11 12 13 14 15 16 17 18 19 20 21 22 23 24 25 26 27 28 29 30 31 32 33 34 35 36 37 38 39 40 41 42 43 44 45 46 47 48 49 50
000
NZUS43 KILX 191510
HWRILX

AREA WEATHER ROUNDUP
NATIONAL WEATHER SERVICE, LINCOLN IL
1000 AM CDT TUE AUG 19 2014


CITY           SKY/WX    TMP DP  RH WIND       PRES   REMARKS
BLOOMINGTON    CLOUDY    75  69  81 SW12      29.83R
CHAMPAIGN      MOSUNNY   78  71  79 SW13      29.84R HX  80
DECATUR        MOSUNNY   80  72  76 SW13      29.83S HX  84
FLORA          SUNNY     79  74  83 SW8       29.86R HX  83
GALESBURG      CLOUDY    68  66  93 SW26G32   29.83R
JACKSONVILLE   CLOUDY    75  71  87 SW9       29.85R
LACON          RAIN      74  69  83 S6        29.75F
LAWRENCEVILLE  SUNNY     80  72  76 SW10      29.86S HX  84
LITCHFIELD     PTSUNNY   77  73  87 S6        29.83S
$$


CITY           SKY/WX    TMP DP  RH WIND       PRES   REMARKS
LINCOLN        CLOUDY    80  71  74 S6        29.77F HX  83
MACOMB         CLOUDY    69  69 100 W7        29.85R
MATTOON        MOSUNNY   78  70  76 S9        29.84R HX  80
MT CARMEL AP   SUNNY     82  73  74 SW10      29.85S HX  88
OLNEY-NOBLE AP SUNNY     81  73  78 CALM      29.86S HX  85
PARIS          SUNNY     79  74  85 SW10      29.85R HX  83
PEORIA         CLOUDY    74  68  81 SW20G30   29.82R THUNDER
PONTIAC        PTSUNNY   81  73  78 SW12G18   29.79R HX  85
RANTOUL        MOSUNNY   79  70  73 SW12G18   29.83S HX  82
ROBINSON       SUNNY     81  74  81 W8        29.86S HX  86
SPRINGFIELD    PTSUNNY   81  72  74 SW7       29.82S HX  85
TAYLORVILLE    PTSUNNY   77  72  83 SW9       29.81F
$$

...REGIONAL REPORTS...


CITY           SKY/WX    TMP DP  RH WIND       PRES   REMARKS
CHICAGO O`HARE PTSUNNY   79  68  69 SW14G21   29.73S HX  81
KANKAKEE       MOSUNNY   79  72  79 SW14      29.79S HX  82
MOLINE         CLOUDY    76  70  82 SW13      29.77R
MOUNT VERNON   SUNNY     81  72  74 S7        29.86S HX  84
PITTSFIELD     LGT RAIN  71  64  80 W9G17     29.82F
QUINCY         LGT RAIN  70  64  81 CALM      29.75F
ROCKFORD       CLOUDY    74  69  85 W8        29.74S
$$


CITY           SKY/WX    TMP DP  RH WIND       PRES   REMARKS
BURLINGTON     LGT RAIN  68  66  93 SW10      29.82R
CEDAR RAPIDS   MOSUNNY   76  68  76 W10       29.76R
DES MOINES     MOSUNNY   78  66  66 W6        29.79S HX  80
KIRKSVILLE     CLOUDY    77  68  73 W3        29.79F
OTTUMWA        MOSUNNY   77  72  84 NW8       29.77F
ST LOUIS       PTSUNNY   82  71  69 NW9       29.86R HX  86
$$


CITY           SKY/WX    TMP DP  RH WIND       PRES   REMARKS
TERRE HAUTE    MOSUNNY   79  71  76 S9        29.84F HX  82
EVANSVILLE     SUNNY     80  71  74 SW9       29.87S HX  84
INDIANAPOLIS   MOSUNNY   79  69  71 SW8       29.84F HX  81
LAFAYETTE      MOSUNNY   77  71  82 MISG      29.82S
MADISON        PTSUNNY   74  66  76 W5        29.71S
MILWAUKEE      CLOUDY    75  68  78 SW10      29.70F
$$




USA.gov is the U.S. government's official web portal to all federal, state and local government web resources and services.